This demonstration page uses our WeatherBlox Daily Observations layout. Learn more.

Left ArrowRight Arrow

30.21309, -93.2044

Hourly Observations for July 28, 2021

Temp ( °F °C ) Dew Point ( °F °C ) Humidity (%) Winds ( mph kmh ) Pressure ( in mb ) Visibility ( mi km ) Precip ( " mm )
12:15 am 00:15 Clear 75 24.1 73 22.8 92 92 Calm 30.03 1017 10 16 0.00 0.00
12:35 am 00:35 Clear 75 23.9 73 22.8 94 94 Calm 30.03 1017 10 16 0.00 0.00
12:55 am 00:55 Clear 76 24.7 73 22.8 89 89 WNW 9 15 30.03 1017 10 16 0.00 0.00
1:15 am 01:15 Clear 76 24.4 73 22.5 89 89 NW 3 6 30.02 1017 10 16 0.00 0.00
1:35 am 01:35 Clear 75 24.1 72 22.3 90 90 NW 6 9 30.01 1016 10 16 0.00 0.00
1:55 am 01:55 Clear 75 23.7 72 22.2 91 91 Calm 29.99 1016 10 16 0.00 0.00
2:15 am 02:15 Clear 75 23.7 72 22.2 91 91 Calm 29.98 1015 10 16 0.00 0.00
2:35 am 02:35 Clear 74 23.4 72 22.2 93 93 Calm 29.98 1015 10 16 0.00 0.00
2:55 am 02:55 Clear 74 23.5 72 22.1 92 92 N 5 7 29.97 1015 10 16 0.00 0.00
3:15 am 03:15 Clear 74 23.5 72 22.3 93 93 NW 3 6 29.97 1015 10 16 0.00 0.00
3:35 am 03:35 Clear 74 23.5 72 22.2 92 92 N 3 6 29.97 1015 10 16 0.00 0.00
3:55 am 03:55 Clear 74 23.3 72 22.2 94 94 E 5 7 29.97 1015 10 16 0.00 0.00
4:15 am 04:15 Clear 74 23.2 72 22.2 94 94 E 6 9 29.98 1015 10 16 0.00 0.00
4:35 am 04:35 Clear 74 23.1 72 22.1 94 94 E 5 7 29.99 1016 10 16 0.00 0.00
4:55 am 04:55 Clear 74 23.1 72 22.1 94 94 Calm 29.99 1016 10 16 0.00 0.00
5:15 am 05:15 Clear 74 23.3 72 22.2 94 94 Calm 30.00 1016 10 16 0.00 0.00
5:35 am 05:35 Clear 74 23.3 72 22.1 93 93 Calm 30.00 1016 10 16 0.00 0.00
6:00 am 06:00 Mostly Clear 73 23 72 22 94 94 Calm 30.00 1016 10 16 0.00 0.00
6:45 am 06:45 Mostly Sunny 73 23 72 22 94 94 Calm 30.02 1017 10 16 0.00 0.00
7:55 am 07:55 Mostly Sunny 77 25 73 23 89 89 Calm 30.04 1017 10 16 0.00 0.00
8:55 am 08:55 Mostly Sunny 81 27 73 23 79 79 ENE 7 11 30.06 1018 10 16 0.00 0.00
9:45 am 09:45 Partly Cloudy 82 28 73 23 74 74 ENE 5 7 30.06 1018 10 16 0.00 0.00
10:45 am 10:45 Partly Cloudy 86 30 73 23 66 66 VRB 6 9 30.06 1018 10 16 0.00 0.00
11:45 am 11:45 Partly Cloudy 88 31 73 23 62 62 SE 3 6 30.05 1018 10 16 0.00 0.00
12:55 pm 12:55 Partly Cloudy 90 32 75 24 63 63 SSE 5 7 30.04 1017 10 16 0.00 0.00
1:45 pm 13:45 Mostly Cloudy 90 32 73 23 59 59 E 5 7 30.01 1016 10 16 0.00 0.00
2:55 pm 14:55 Mostly Cloudy 91 33 75 24 59 59 Calm 29.99 1016 10 16 0.00 0.00
3:45 pm 15:45 Mostly Cloudy 91 33 75 24 59 59 Calm 29.99 1016 10 16 0.00 0.00
5:50 pm 17:50 Mostly Sunny 91 33 73 23 56 56 E 3 6 29.95 1014 10 16 0.00 0.00
6:50 pm 18:50 Mostly Sunny 91 33 73 23 56 56 ESE 3 6 29.94 1014 10 16 0.00 0.00
7:55 pm 19:55 Mostly Sunny 88 31 75 24 66 66 ESE 5 7 29.96 1015 10 16 0.00 0.00
8:50 pm 20:50 Mostly Clear 84 29 77 25 79 79 E 3 6 29.98 1015 10 16 0.00 0.00
9:50 pm 21:50 Mostly Clear 82 28 75 24 79 79 ESE 3 6 29.98 1015 10 16 0.00 0.00
10:15 pm 22:15 Clear 83 28.3 77 25.1 83 83 S 7 11 29.99 1016 10 16 0.00 0.00
10:35 pm 22:35 Clear 84 28.7 77 25.2 81 81 SSW 7 11 30.00 1016 10 16 0.00 0.00
10:55 pm 22:55 Clear 84 28.9 77 25 80 80 SW 7 11 29.99 1016 10 16 0.00 0.00
11:15 pm 23:15 Clear 84 28.8 77 24.9 79 79 SW 8 13 29.99 1016 10 16 0.00 0.00
11:35 pm 23:35 Clear 83 28.5 76 24.7 80 80 SSW 7 11 29.99 1016 10 16 0.00 0.00
11:55 pm 23:55 Clear 83 28.5 76 24.7 80 80 SSW 5 7 29.99 1016 10 16 0.00 0.00

Powered by AerisWeather